FW4702 Weather Reports


Display with metric or nautical units.
time (UTC)temp
F
wind
direction
speed
MPH
gust
MPH
rain 1hr
in
rain 24hr
in
rain mn
in
humidity
%
barometer
mb
20260504202058 75 181 1.0 5.0 0.00 0.00 0.00 48 1013.5
20260504201607 75 211 2.0 5.0 0.00 0.00 0.00 48 1013.6
20260504201056 75 211 2.0 5.0 0.00 0.00 0.00 50 1013.6
20260504200556 75 0 0.0 6.0 0.00 0.00 0.00 52 1013.7
20260504200103 75 219 2.0 6.0 0.00 0.00 0.00 48 1013.7
20260504195555 76 248 2.0 6.0 0.00 0.00 0.00 51 1013.8
20260504195055 77 182 3.0 6.0 0.00 0.00 0.00 52 1013.8
20260504194556 77 175 1.0 5.0 0.00 0.00 0.00 53 1013.8
20260504194057 77 160 2.0 6.0 0.00 0.00 0.00 52 1013.9
20260504193557 77 221 1.0 6.0 0.00 0.00 0.00 52 1014.0
20260504193055 76 190 3.0 6.0 0.00 0.00 0.00 53 1014.0
20260504192557 76 0 1.0 4.0 0.00 0.00 0.00 52 1014.1
20260504192058 76 188 2.0 4.0 0.00 0.00 0.00 53 1014.0
20260504191609 76 0 2.0 6.0 0.00 0.00 0.00 51 1014.1
20260504191056 76 229 2.0 6.0 0.00 0.00 0.00 52 1014.3
20260504190559 75 213 2.0 6.0 0.00 0.00 0.00 54 1014.4
20260504190055 75 0 1.0 7.0 0.00 0.00 0.00 56 1014.5
20260504185555 75 200 2.0 7.0 0.00 0.00 0.00 50 1014.5
20260504185055 75 169 1.0 4.0 0.00 0.00 0.00 52 1014.5
20260504184556 75 196 0.0 6.0 0.00 0.00 0.00 54 1014.7
20260504184056 75 180 2.0 6.0 0.00 0.00 0.00 51 1014.7
20260504183556 75 199 2.0 4.0 0.00 0.00 0.00 53 1014.8
20260504183055 75 217 2.0 5.0 0.00 0.00 0.00 52 1014.8
20260504182559 75 191 2.0 5.0 0.00 0.00 0.00 50 1015.0
20260504182056 75 242 1.0 5.0 0.00 0.00 0.00 53 1014.9
20260504181556 75 224 2.0 6.0 0.00 0.00 0.00 54 1015.1
20260504181056 75 219 2.0 6.0 0.00 0.00 0.00 54 1015.1
20260504180556 75 195 2.0 5.0 0.00 0.00 0.00 56 1015.0
20260504180057 75 202 1.0 3.0 0.00 0.00 0.00 54 1015.0
20260504175556 75 198 0.0 4.0 0.00 0.00 0.00 54 1015.0
20260504175056 74 217 1.0 5.0 0.00 0.00 0.00 54 1015.1
20260504174559 74 211 2.0 5.0 0.00 0.00 0.00 54 1015.1
20260504174059 74 199 2.0 5.0 0.00 0.00 0.00 54 1015.2
20260504173557 74 186 2.0 4.0 0.00 0.00 0.00 56 1015.2
20260504173057 74 0 2.0 4.0 0.00 0.00 0.00 56 1015.4
20260504172559 74 200 1.0 5.0 0.00 0.00 0.00 57 1015.4
20260504172056 73 217 2.0 6.0 0.00 0.00 0.00 57 1015.6
20260504171556 73 199 1.0 6.0 0.00 0.00 0.00 57 1015.8
20260504171055 73 0 1.0 6.0 0.00 0.00 0.00 57 1015.9
20260504170556 73 192 1.0 6.0 0.00 0.00 0.00 57 1016.0
20260504160104 70 176 1.0 6.0 0.00 0.00 0.00 58 1016.8
20260504151056 68 151 1.0 4.0 0.00 0.00 0.00 61 1017.0
20260504150556 67 227 0.0 6.0 0.00 0.00 0.00 63 1017.0
20260504141056 63 0 0.0 3.0 0.00 0.00 0.00 67 1017.3
20260504140556 62 219 1.0 4.0 0.00 0.00 0.00 66 1017.4
20260504130555 57 0 0.0 0.0 0.00 0.00 0.00 76 1017.7
20260504120130 47 0 0.0 0.0 0.00 0.00 0.00 97 1017.2
20260504110558 44 0 0.0 0.0 0.00 0.00 0.00 96 1016.8
20260504100552 45 0 0.0 0.0 0.00 0.00 0.00 96 1016.6
20260504081610 45 0 0.0 0.0 0.00 0.00 0.00 95 1016.7
20260504081056 45 0 0.0 0.0 0.00 0.00 0.00 95 1016.7
20260504080556 45 0 0.0 0.0 0.00 0.00 0.00 95 1016.8
20260504080106 45 0 0.0 0.0 0.00 0.00 0.00 95 1016.7
20260504050556 47 0 0.0 0.0 0.00 0.00 0.00 91 1018.1
20260504045600 47 0 0.0 0.0 0.00 0.00 0.00 91 1018.0
20260504045055 47 0 0.0 0.0 0.00 0.00 0.00 91 1017.9
20260504044554 47 0 0.0 0.0 0.00 0.00 0.00 90 1017.9
20260504044055 47 0 0.0 0.0 0.00 0.00 0.00 90 1018.0
20260504043555 47 0 0.0 0.0 0.00 0.00 0.00 90 1017.9
20260504043112 47 0 0.0 0.0 0.00 0.00 0.00 89 1018.0
20260504042554 48 0 0.0 0.0 0.00 0.00 0.00 88 1018.1
20260504042059 48 0 0.0 0.0 0.00 0.00 0.00 87 1018.1
20260504041558 48 0 0.0 0.0 0.00 0.00 0.00 88 1017.9
20260504041056 48 0 0.0 0.0 0.00 0.00 0.00 88 1017.8
20260504040600 48 0 0.0 0.0 0.00 0.00 0.00 88 1017.8
20260504040058 48 0 0.0 0.0 0.00 0.00 0.00 89 1017.8
20260504035558 48 0 0.0 0.0 0.00 0.00 0.00 89 1017.9
20260504035056 48 0 0.0 0.0 0.00 0.00 0.00 89 1018.0
20260504034556 48 0 0.0 0.0 0.00 0.00 0.00 88 1018.1
20260504034055 48 0 0.0 0.0 0.00 0.00 0.00 88 1018.1
20260504033555 48 0 0.0 0.0 0.00 0.00 0.00 87 1018.1
20260504033104 48 0 0.0 0.0 0.00 0.00 0.00 86 1018.2
20260504032555 49 0 0.0 0.0 0.00 0.00 0.00 86 1018.3
20260504032055 48 0 0.0 0.0 0.00 0.00 0.00 86 1018.4
20260504031558 48 0 0.0 0.0 0.00 0.00 0.00 86 1018.4
20260504031056 49 0 0.0 0.0 0.00 0.00 0.00 86 1018.5
20260504030556 49 0 0.0 0.0 0.00 0.00 0.00 86 1018.5
20260504030114 49 0 0.0 0.0 0.00 0.00 0.00 85 1018.6
20260504025556 50 0 0.0 0.0 0.00 0.00 0.00 85 1018.6
20260504025056 50 0 0.0 0.0 0.00 0.00 0.00 84 1018.5
20260504024555 50 0 0.0 0.0 0.00 0.00 0.00 84 1018.5
20260504024055 50 0 0.0 0.0 0.00 0.00 0.00 84 1018.4
20260504023556 50 0 0.0 0.0 0.00 0.00 0.00 84 1018.3
20260504023058 50 0 0.0 0.0 0.00 0.00 0.00 81 1018.3
20260504022559 50 0 0.0 0.0 0.00 0.00 0.00 82 1018.3
20260504022058 50 0 0.0 0.0 0.00 0.00 0.00 83 1018.2
20260504021557 51 0 0.0 0.0 0.00 0.00 0.00 82 1018.1
20260504021055 51 0 0.0 0.0 0.00 0.00 0.00 80 1018.1
20260504020559 51 0 0.0 0.0 0.00 0.00 0.00 82 1018.0
20260504015555 52 0 0.0 0.0 0.00 0.00 0.00 81 1017.9
20260504015055 52 0 0.0 0.0 0.00 0.00 0.00 76 1017.8
20260504014604 52 0 0.0 0.0 0.00 0.00 0.00 80 1017.8
20260504014056 52 0 0.0 0.0 0.00 0.00 0.00 80 1017.7
20260504013556 52 0 0.0 0.0 0.00 0.00 0.00 80 1017.6
20260504013056 53 0 0.0 0.0 0.00 0.00 0.00 81 1017.6
20260504012556 53 0 0.0 0.0 0.00 0.00 0.00 79 1017.5
20260504012056 53 0 0.0 0.0 0.00 0.00 0.00 79 1017.4
20260504011556 54 0 0.0 0.0 0.00 0.00 0.00 79 1017.4
20260504011055 54 0 0.0 0.0 0.00 0.00 0.00 78 1017.3
20260504010556 54 0 0.0 0.0 0.00 0.00 0.00 76 1017.3
20260504010101 55 0 0.0 1.0 0.00 0.00 0.00 77 1017.4
20260504005556 55 0 0.0 1.0 0.00 0.00 0.00 73 1017.4
20260504005055 56 0 0.0 1.0 0.00 0.00 0.00 76 1017.4
20260504004556 56 0 0.0 0.0 0.00 0.00 0.00 73 1017.4
20260504004056 56 0 0.0 0.0 0.00 0.00 0.00 76 1017.3
20260504003555 56 0 0.0 0.0 0.00 0.00 0.00 74 1017.4
20260504003054 57 0 0.0 0.0 0.00 0.00 0.00 73 1017.3
20260504002555 58 0 0.0 0.0 0.00 0.00 0.00 70 1017.4
20260504002055 59 0 0.0 0.0 0.00 0.00 0.00 71 1017.5
20260504001600 59 0 0.0 0.0 0.00 0.00 0.00 70 1017.5
20260504001055 60 0 0.0 0.0 0.00 0.00 0.00 66 1017.5
20260504000556 60 0 0.0 2.0 0.00 0.00 0.00 61 1017.6
20260504000103 62 0 0.0 2.0 0.00 0.00 0.00 61 1017.6
20260503235556 62 0 0.0 2.0 0.00 0.00 0.00 55 1017.6
20260503235056 63 0 0.0 0.0 0.00 0.00 0.00 49 1017.5
20260503234555 63 0 0.0 2.0 0.00 0.00 0.00 49 1017.6
20260503234056 63 0 0.0 2.0 0.00 0.00 0.00 48 1017.7
20260503233558 64 0 0.0 1.0 0.00 0.00 0.00 48 1017.7
20260503233102 64 0 0.0 5.0 0.00 0.00 0.00 45 1017.7
20260503232600 65 0 0.0 5.0 0.00 0.00 0.00 43 1017.7
20260503232055 65 0 1.0 5.0 0.00 0.00 0.00 40 1017.8
20260503231556 65 319 1.0 4.0 0.00 0.00 0.00 41 1017.9
20260503231055 65 326 0.0 5.0 0.00 0.00 0.00 41 1017.9
20260503230556 65 0 0.0 5.0 0.00 0.00 0.00 43 1017.9
20260503230111 65 0 0.0 5.0 0.00 0.00 0.00 41 1017.9
20260503225555 65 0 0.0 3.0 0.00 0.00 0.00 40 1018.0
20260503225055 65 0 1.0 3.0 0.00 0.00 0.00 43 1018.0
20260503224556 65 0 0.0 4.0 0.00 0.00 0.00 46 1018.0
20260503224056 65 0 0.0 4.0 0.00 0.00 0.00 45 1018.0
20260503223556 65 0 0.0 4.0 0.00 0.00 0.00 42 1018.0
20260503223109 65 249 0.0 3.0 0.00 0.00 0.00 44 1018.0
20260503222556 65 189 0.0 9.0 0.00 0.00 0.00 48 1018.0
20260503222056 66 0 0.0 9.0 0.00 0.00 0.00 41 1018.1
20260503221555 65 292 1.0 5.0 0.00 0.00 0.00 46 1018.1
20260503221056 65 187 0.0 4.0 0.00 0.00 0.00 48 1018.3
20260503220556 66 0 0.0 9.0 0.00 0.00 0.00 42 1018.3
20260503220055 66 0 0.0 9.0 0.00 0.00 0.00 44 1018.3
20260503215556 66 0 2.0 9.0 0.00 0.00 0.00 41 1018.3
20260503215055 66 0 1.0 5.0 0.00 0.00 0.00 39 1018.3
20260503214559 66 0 0.0 5.0 0.00 0.00 0.00 44 1018.3
20260503214055 66 0 1.0 5.0 0.00 0.00 0.00 40 1018.4
20260503213555 66 0 0.0 3.0 0.00 0.00 0.00 44 1018.5
20260503213057 66 173 0.0 9.0 0.00 0.00 0.00 44 1018.5
20260503212555 66 208 2.0 11.0 0.00 0.00 0.00 43 1018.5
20260503212056 66 242 3.0 11.0 0.00 0.00 0.00 40 1018.7
20260503211553 66 315 1.0 5.0 0.00 0.00 0.00 40 1018.6
20260503211055 66 210 0.0 5.0 0.00 0.00 0.00 42 1018.7
20260503210556 66 262 1.0 4.0 0.00 0.00 0.00 48 1018.7
20260503210054 66 0 1.0 6.0 0.00 0.00 0.00 48 1018.7
20260503205555 66 281 1.0 6.0 0.00 0.00 0.00 42 1018.7
20260503205056 65 277 1.0 4.0 0.00 0.00 0.00 42 1018.7
20260503204554 66 342 0.0 4.0 0.00 0.00 0.00 42 1018.8
20260503204055 66 211 1.0 4.0 0.00 0.00 0.00 48 1018.9
20260503203555 66 189 0.0 4.0 0.00 0.00 0.00 46 1019.0
20260503203054 66 208 1.0 4.0 0.00 0.00 0.00 44 1019.2
20260503202556 66 202 0.0 3.0 0.00 0.00 0.00 43 1019.3